Location: American Medical Response
(33.3472°N, 96.5511°W)
Time: 04:41:05
(UTC+00:00)

Lacrosse 5 rocket - Pass Details

Date: 10 July 2022
Orbit: 456 x 628 km, 57.0° (Epoch: 17 August)

Event Time Altitude Azimuth Distance (km) Brightness Sun altitude
Rises 02:09:40 0° 305° (NW) 2,594 7.5 -6.5°
Reaches altitude 10° 02:12:07 10° 290° (WNW) 1,738 5.5 -6.9°
Maximum altitude 02:15:14 23° 238° (WSW) 1,170 3.3 -7.5°
Drops below altitude 10° 02:18:28 10° 186° (S) 1,814 3.7 -8.0°
Enters shadow 02:20:59 - 172° (S) 2,700 4.4 -8.5°
